Tracking 31027 objects as of 18-Jul-2025
HD Live streaming from Space Station
objects crossing your sky now

OBJECT N

Track OBJECT N now!
10-day predictions


NORAD ID: 57016
Int'l Code: 2023-085N
Perigee: 382.1 km
Apogee: 386.6 km
Inclination: 97.5 °
Period: 92.1 minutes
Semi major axis: 6755 km
RCS: Unknown
Launch date: June 15, 2023
Source: People's Republic of China (PRC)
Launch site: Taiyaun Space Center, China (TSC)
Your satellite tracking list
Your tracking list is empty




NASA's NSSDC Master Catalog

Two Line Element Set (TLE):
1 57016U 23085N   25199.84272171  .00087999  00000-0  93990-3 0  9990
2 57016  97.4758 316.6699 0003337 122.6048 237.5533 15.63628008116566
Source of the keplerian elements: AFSPC